Regional Weather Roundup
Issued by NWS Boston, MA

Home | Current Version | Previous Version | Text Only | Print | Product List | Glossary On
Versions: 1 2 3 4 5 6 7 8 9 10 11 12 13 14 15 16 17 18 19 20 21 22 23 24 25 26 27 28 29 30 31 32 33 34 35 36 37 38 39 40 41 42 43 44 45 46 47 48 49 50
000
ASUS41 KBOX 262210
RWRBOX

REGIONAL WEATHER ROUNDUP
NATIONAL WEATHER SERVICE TAUNTON MA
600 PM EDT SUN APR 26 2015

NOTE:  "FAIR" INDICATES FEW OR NO CLOUDS BELOW 12,000 FEET WITH NO
SIGNIFICANT WEATHER AND/OR OBSTRUCTIONS TO VISIBILITY.  THE FOLLOWING
OBSERVATION LOCATIONS DO NOT REPORT PRESENT WEATHER...PROVINCETOWN...
SMITHFIELD...BLOCK ISLAND...KEENE...AND OXFORD.

MAZALL-262300-
EASTERN MASSACHUSETTS

CITY           SKY/WX    TMP DP  RH WIND       PRES   REMARKS
BOSTON         CLOUDY    55  28  35 NW10      29.62S
BEVERLY        PTSUNNY   53  34  48 CALM      29.61S
LAWRENCE       CLOUDY    55  32  41 N5        29.63S
BEDFORD        CLOUDY    54  30  40 W8        29.61S
BLUE HILL        N/A     52  31  44 CALM      29.60F
NORWOOD        CLOUDY    55  31  39 NW6       29.62S
MARSHFIELD     PTSUNNY   48  34  57 S5        29.64S
PLYMOUTH       CLOUDY    51  36  56 SE5       29.63S
TAUNTON        CLOUDY    56  32  40 CALM      29.62S
NEW BEDFORD    CLOUDY    52  36  54 S6        29.62S
$$

MAZALL-262300-
CAPE COD AND THE ISLANDS

CITY           SKY/WX    TMP DP  RH WIND       PRES   REMARKS
FALMOUTH       CLOUDY    48  32  53 SW8       29.63F
HYANNIS        CLOUDY    50  32  50 SW9       29.62S
CHATHAM        MOSUNNY   49  38  65 SW5       29.64S
PROVINCETOWN   MOSUNNY  N/A N/A N/A SW9       29.63S
NANTUCKET      PTSUNNY   48  36  63 W10       29.64S
MARTHAS VNYRD  CLOUDY    46  36  68 SW6       29.64S
$$

MAZALL-262300-
CENTRAL AND WESTERN MASSACHUSETTS

CITY           SKY/WX    TMP DP  RH WIND       PRES   REMARKS
WORCESTER      CLOUDY    52  27  38 NW10      29.62S
FITCHBURG      CLOUDY    54  29  38 NW8       29.63S
ORANGE         CLOUDY    54  28  36 N6        29.63S
SPRINGFIELD    CLOUDY    55  30  38 N5        29.63R
WESTFIELD      CLOUDY    57  29  34 NW9       29.64R
NORTH ADAMS    CLOUDY    52  30  43 W8        29.65S
PITTSFIELD     CLOUDY    50  29  44 NW6       29.64S
$$

RIZALL-262300-
RHODE ISLAND

CITY           SKY/WX    TMP DP  RH WIND       PRES   REMARKS
PROVIDENCE     PTSUNNY   57  29  34 NW3       29.63S
NEWPORT        CLOUDY    49  35  58 VRB3      29.63S
BLOCK ISLAND   CLOUDY    48  36  61 SW15      29.64F
WESTERLY       CLOUDY    50  37  61 S7        29.64F
$$

CTZALL-262300-
CONNECTICUT

CITY           SKY/WX    TMP DP  RH WIND       PRES   REMARKS
BRADLEY INTL   PTSUNNY   57  28  33 NW9       29.64R
HARTFORD       CLOUDY    56  29  35 VRB6      29.65R
BRIDGEPORT     CLOUDY    60  29  30 N9        29.64S
DANBURY        CLOUDY    56  27  32 VRB7      29.66R
GROTON         CLOUDY    53  32  44 W7        29.63S
NEW HAVEN      CLOUDY    57  31  37 CALM      29.64S
CHESTER        CLOUDY    55  28  35 N12       29.65R
MERIDEN        CLOUDY    57  28  33 N10       29.65R
WILLIMANTIC    CLOUDY    57  29  34 NW10      29.64S
OXFORD         CLOUDY    54  30  40 N13       29.66R
$$

MEZ002-015-021-024-NHZ003-005-008-011-012-014-VTZ005-008-262300-
NORTHERN NEW ENGLAND

CITY           SKY/WX    TMP DP  RH WIND       PRES   REMARKS
PORTLAND ME    CLOUDY    53  36  52 S5        29.60S
BANGOR ME      LGT RAIN  47  41  80 N9        29.59S
CONCORD NH     CLOUDY    55  30  38 NW10      29.62R
MANCHESTER NH  PTSUNNY   55  29  36 NW10      29.61R
NASHUA NH      PTSUNNY   56  31  38 NW7       29.63S
PORTSMOUTH NH  CLOUDY    49  36  61 E7        29.60S
JAFFREY NH     CLOUDY    51  29  42 VRB6      29.63S
KEENE NH       CLOUDY    54  30  40 NW6       29.64R
BURLINGTON VT  PTSUNNY   50  32  50 N8        29.68S
MT. WASHINGTON SNOW      23  23 100 NW32        N/A  VSB 0   WCI   5
$$

NYZ052-076-262300-
EASTERN NEW YORK

CITY           SKY/WX    TMP DP  RH WIND       PRES   REMARKS
ALBANY         CLOUDY    55  29  36 NW8       29.67R
NEW YORK CITY  PTSUNNY   59  28  30 NW7       29.65S
$$

ANZALL-262300-
MARINE OBSERVATIONS

STATION/POSITION TIME  TEMP    WIND        PRES    VSBY  WAVE
                       AIR SEA DIR/SP/G                  HT/PER
                 (UTC) (F)     (DEG/KT/KT) (MB)    (MI)  (FT/S)
BOSTON BUOY      2150   44 46  160/  6/  8 1003.1F         1/11
BUZZARDS BAY     2200          200/ 10/ 11 1004.3R
NANTUCKET SOUND  2150   47 47  240/ 10/ 12 1003.5F         1
MASS BAY-STELLWA 2104   45 45  170/  6/  6   N/A    1 7/8  1/11
ISLE OF SHOALS   2200   46     170/ 11/ 11 1002.3F
S OF BLOCK IS    2108      42                N/A           1/12
$$

......................KEY.........................
  SKY/WX - SKY CONDITION/PRESENT WEATHER
  TMP    - TEMPERATURE IN FAHRENHEIT
  DWPT   - DEWPOINT IN FAHRENHEIT
  RH     - RELATIVE HUMIDITY IN PERCENT
  WIND   - DIRECTION AND SPEED IN MPH
  PRES   - MEAN SEA LEVEL PRESSURE IN INCHES OF HG
  WCI    - WIND CHILL INDEX
  VSB    - VISIBILITY IN MILES
  HX     - HEAT INDEX
  TC     - TEMPERATURE IN CELSIUS
  VRB    - VARIABLE WIND DIRECTION
  N/A    - NOT AVAILABLE



USA.gov is the U.S. government's official web portal to all federal, state and local government web resources and services.